Regional Weather Roundup
Issued by NWS

Home | Current Version | Previous Version | Text Only | Print | Product List | Glossary Off
Versions: 1 2 3 4 5 6 7 8 9 10 11 12 13 14 15 16 17 18 19 20 21 22 23 24 25 26 27 28 29 30 31 32 33 34 35 36 37 38 39 40 41 42 43 44 45 46 47 48 49 50

000
ASUS43 KMPX 290410
RWRMN
WEATHER ROUNDUP FOR MINNESOTA
NATIONAL WEATHER SERVICE TWIN CITIES/CHANHASSEN MN
1100 PM CDT SAT MAY 28 2016


NOTE: "FAIR" INDICATES FEW OR NO CLOUDS BELOW 12,000 FEET WITH NO
SIGNIFICANT WEATHER AND/OR OBSTRUCTIONS TO VISIBILITY. N/A MEANS
CURRENT SKY AND/OR WEATHER CONDITIONS ARE NOT AVAILABLE.

MNZ060>063-068>070-290500-
   Twin Cities Metro

CITY           SKY/WX    TMP DP  RH WIND       PRES   REMARKS
TWIN CITIES    CLOUDY    64  60  87 W5        29.81R
ST PAUL        CLOUDY    62  61  96 W6        29.80S
CRYSTAL        CLOUDY    63  58  83 W5        29.80R
BLAINE         CLOUDY    64  63  94 CALM      29.81R
EDEN PRAIRIE   CLOUDY    63  59  87 SW3       29.81R FOG
SOUTH ST PAUL  MOCLDY    63  62  96 CALM      29.80F
LAKE ELMO      FAIR      61  61 100 CALM      29.82S
$$
MNZ001>005-007-008-013>017-022>024-027-028-290500-
   Northwest Minnesota

CITY           SKY/WX    TMP DP  RH WIND       PRES   REMARKS
BEMIDJI        CLOUDY    58  57  99 CALM      29.83R
HALLOCK        CLOUDY    61  57  88 CALM      29.87S
ROSEAU         LGT RAIN  57  52  82 N5        29.87S
WARROAD        CLOUDY    57  54  88 N7        29.87S
THIEF RVR FALL CLOUDY    57  54  88 N6        29.87S
CROOKSTON      CLOUDY    61  57  88 NE5       29.87S
FOSSTON        HVY RAIN  55  55 100 N7        29.85S
DETROIT LAKES  RAIN      59  57  94 NW6       29.86S
MOORHEAD       LGT RAIN  61  59  94 NW9       29.87R
PARK RAPIDS    LGT RAIN  60  58  92 NW3       29.83S FOG
MAHNOMEN       LGT RAIN  58  57  97 NW6       29.85R
$$
MNZ006-009>011-018-025>026-290500-
   North Central Minnesota

CITY           SKY/WX    TMP DP  RH WIND       PRES   REMARKS
BAUDETTE       CLOUDY    55  53  93 N6        29.84S
FLAG ISLAND    CLOUDY    55  54  94 NE8       29.85S
INTL FALLS     CLOUDY    57  56  96 N6        29.82S FOG
WASKISH        DRIZZLE   55  55 100 N7          N/A
BIG FORK       CLOUDY    61  57  88 CALM      29.81S FOG
LONGVILLE      MIX PCPN  57  57 100 CALM      29.82S
GRAND RAPIDS   LGT RAIN  60  59  96 CALM      29.83R
CRANE LAKE     CLOUDY    57  57 100 CALM      29.82S
ORR            CLOUDY    59  55  88 CALM      29.78S FOG
COOK           FOG       57  57 100 CALM      29.81S VSB 1/2
WALKER         CLOUDY    58  57  99 CALM      29.82S
$$
MNZ012-019>021-037-290500-
   Northeast Minnesota

CITY           SKY/WX    TMP DP  RH WIND       PRES   REMARKS
DULUTH         CLOUDY    56  55  97 E3        29.80S FOG
ELY            FOG       59  57  94 CALM      29.81S VSB 1
HIBBING        CLOUDY    58  58 100 CALM      29.81R
EVELETH        LGT RAIN  57  57 100 CALM      29.82S
DULUTH HARBOR  CLOUDY    52  48  87 E3        29.81S
TWO HARBORS    HAZE      59  54  82 CALM      29.78S VSB 3/4
SILVER BAY     CLOUDY    57  55  94 CALM      29.79R FOG
GRAND MARAIS     N/A     46  45  96 CALM      29.82R
G MARAIS ARPRT FOG       59  57  94 CALM      29.83S VSB 1/4
$$
MNZ029>031-032-039>041-046>048-054>057-064-290500-
   West Central Minnesota

CITY           SKY/WX    TMP DP  RH WIND       PRES   REMARKS
FERGUS FALLS   LGT RAIN  61  61 100 NW6       29.83S
WHEATON        CLOUDY    63  59  88 NW5       29.88S
MORRIS         LGT RAIN  61  59  94 NW5       29.86R
ALEXANDRIA     CLOUDY    60  57  89 W5        29.86R
ELBOW LAKE     DRIZZLE   59  58  97 W6        29.87R
WADENA         CLOUDY    57  57 100 W5        29.84R
GLENWOOD       MOCLDY    61  57  88 W5        29.86R
APPLETON       MOCLDY    61  57  88 W5        29.86R
BENSON         CLOUDY    61  57  88 NW3       29.86R
ORTONVILLE     CLOUDY    63  57  82 W8        29.86S
MADISON        PTCLDY    63  59  88 W7        29.87R
WILLMAR        CLOUDY    63  61  94 W5        29.86S
$$
MNZ033>034-036-042>043-049>051-058-059-290500-
   Central Minnesota

CITY           SKY/WX    TMP DP  RH WIND       PRES   REMARKS
ST CLOUD       CLOUDY    60  59  96 NW5       29.82R
SAUK CENTRE    CLOUDY    60  57  91 W3        29.85R
PAYNESVILLE    CLOUDY    61  60  95 W6        29.85R
AITKIN         CLOUDY    61  55  82 CALM      29.81R
PINE RIVER     CLOUDY    59  59 100 CALM      29.86S
BRAINERD       CLOUDY    60  58  92 SW3       29.83R
STAPLES        CLOUDY    57  57 100 CALM      29.83S
LONG PRAIRIE   CLOUDY    59  55  88 SW5       29.85R
LITTLE FALLS   CLOUDY    59  57  94 CALM      29.83S
LITCHFIELD     CLOUDY    64  63  94 W5        29.85R
BUFFALO        CLOUDY    62  58  87 W3        29.83S
MAPLE LAKE     CLOUDY    62  60  94 CALM      29.84R
HUTCHINSON     CLOUDY    63  61  94 W5        29.85R
$$
MNZ037-044-045-052-053-290500-
   East Central Minnesota

CITY           SKY/WX    TMP DP  RH WIND       PRES   REMARKS
PRINCETON        N/A     63  61  94 CALM      29.82S
MORA           CLOUDY    59  54  82 NW3       29.83S
CAMBRIDGE      CLOUDY    64  55  72 CALM      29.80S
RUSH CITY      LGT RAIN  60  59  94 CALM      29.81S
MOOSE LAKE     CLOUDY    55  54  94 CALM      29.80S
HINCKLEY       CLOUDY    61  61 100 CALM      29.81S
CLOQUET        CLOUDY    55  54  94 W3        29.80S FOG
MCGREGOR       CLOUDY    61  59  94 CALM      29.82R
$$
MNZ071>073-080-081-089-090-097-098-290500-
   Southwest Minnesota

CITY           SKY/WX    TMP DP  RH WIND       PRES   REMARKS
MONTEVIDEO     MOCLDY    61  61 100 CALM      29.88R
GRANITE FALLS  MOCLDY    63  61  93 SW6       29.88S
CANBY          CLOUDY    64  61  90 W7        29.89R
MARSHALL       CLOUDY    61  59  93 W8        29.88R
REDWOOD FALLS  CLOUDY    62  59  90 W6        29.85R
OLIVIA         CLOUDY    63  59  88 W6        29.85S
PIPESTONE      PTCLDY    61  57  88 CALM      29.91R
WINDOM         MOCLDY    61  57  88 CALM      29.88R
WORTHINGTON    CLOUDY    60  58  92 W7        29.91R
JACKSON        CLOUDY    61  57  88 NW6       29.88R
TRACY          CLOUDY    61  58  92 W3        29.89R
SLAYTON        PTCLDY    59  58  96 W7        29.91R
$$
MNZ065>067-074>077-082>085-091>093-290500-
   South Central Minnesota

CITY           SKY/WX    TMP DP  RH WIND       PRES   REMARKS
MANKATO        MOCLDY    63  57  82 N7        29.84R
NEW ULM        CLOUDY    61  61 100 W14       29.85R
ST JAMES       CLOUDY    57  55  94 W6        29.87R
FAIRMONT       CLOUDY    63  54  72 NW8       29.85R
GLENCOE        CLOUDY    63  62  95 CALM      29.83R
FARIBAULT      CLOUDY    63  61  94 W2        29.83R
OWATONNA       LGT RAIN  63  61  94 NW5       29.83S
WASECA         CLOUDY    63  59  88 NW3       29.85R
ALBERT LEA     PTCLDY    63  61  94 W3        29.83R
$$
MNZ078>079-086>088-094>096-290500-
   Southeast Minnesota

CITY           SKY/WX    TMP DP  RH WIND       PRES   REMARKS
ROCHESTER      LGT RAIN  62  60  93 S8        29.83R
RED WING       CLOUDY    64  63  94 W3        29.80R FOG
STANTON        LGT RAIN  64  61  91 CALM      29.81R
DODGE CENTER   MOCLDY    63  61  94 W6        29.82S
WINONA         CLOUDY    61  61 100 CALM      29.82R
AUSTIN         CLOUDY    63  61  94 CALM      29.83R
PRESTON        CLOUDY    61  58  91 S5        29.84S
$$
ABBREVIATIONS USED IN REMARKS
   TC - TEMPERATURES IN CELSIUS
  WCI - WIND CHILL INDEX
   HX - HEAT INDEX
  VSB - VISIBILITY
$$



USA.gov is the U.S. government's official web portal to all federal, state and local government web resources and services.